Theta_e
348 354 357 357 360 363 365 367 367 366 366 364 363 363 363 362 362 362 363 363 364 365 365 365 365 362 360 362 363 363 362 362 361 362 362 362 362 361 360 358 362 357 358
350 355 358 359 361 362 364 363 364 363 364 364 364 363 362 362 362 363 363 363 364 366 364 363 364 363 363 362 361 362 361 361 361 362 362 362 362 361 358 356 362 359 361
351 355 355 362 361 361 362 361 363 363 363 364 363 363 362 363 363 363 363 363 363 363 363 362 364 361 361 360 360 360 361 361 361 359 359 355 357 360 359 354 357 359 359
353 356 356 362 363 362 363 363 364 362 362 363 362 362 363 362 362 363 363 363 362 363 363 361 362 362 359 360 357 358 360 361 361 359 353 352 354 359 360 355 356 356 359
352 355 359 362 363 362 363 363 364 361 361 362 362 361 362 363 362 363 364 362 362 363 362 361 361 362 362 360 358 355 357 358 356 357 355 356 353 359 359 358 358 359 358
348 351 359 364 361 362 361 362 361 360 360 362 361 361 362 361 361 362 361 361 360 360 360 360 358 357 357 358 357 358 354 354 356 354 353 352 357 360 359 358 358 358 358
347 350 356 364 364 363 362 362 362 362 362 361 360 361 360 360 361 361 360 362 361 360 360 360 360 359 358 357 357 357 357 354 354 354 352 350 357 360 358 358 358 358 359
347 349 353 361 362 363 362 362 361 361 361 361 360 360 360 360 360 359 358 358 358 357 357 358 358 357 357 356 356 356 354 355 352 356 353 348 357 358 358 358 358 356 358
349 349 350 354 360 361 361 361 361 360 360 359 358 358 357 356 357 357 356 356 355 356 356 356 355 356 356 356 355 353 355 352 353 358 350 351 356 357 356 359 357 357 356
350 349 350 352 353 357 358 361 360 360 360 359 359 358 356 356 356 356 356 356 355 356 357 356 357 358 356 355 356 356 354 356 355 355 354 351 355 355 351 356 356 357 357
348 350 351 351 353 357 359 361 362 361 360 359 358 357 358 359 360 361 361 358 359 360 359 359 358 357 359 360 359 357 357 354 353 354 350 355 354 355 354 354 353 355 356
346 348 351 352 353 355 355 362 361 359 358 358 358 361 360 360 362 358 360 359 360 360 360 361 360 360 361 356 360 360 354 353 353 353 354 354 353 352 350 350 352 353 354
347 349 351 353 356 355 356 358 357 360 358 358 361 360 360 360 361 361 364 362 367 362 360 361 359 358 357 357 355 353 356 360 360 361 353 355 353 352 345 346 346 349 353
345 347 350 352 355 355 356 356 357 356 357 355 357 360 363 359 359 363 360 361 362 357 364 361 357 359 360 360 356 357 353 356 364 361 357 354 353 356 350 347 347 348 352
345 347 349 352 357 358 359 356 356 355 354 356 357 360 361 360 364 363 363 360 363 363 364 357 354 360 360 355 358 359 355 360 359 365 360 355 355 355 353 351 351 351 351
346 347 350 352 357 357 357 359 355 355 356 358 359 360 364 360 362 362 360 365 370 366 362 361 355 353 354 357 355 358 358 355 356 355 358 355 355 356 356 355 354 353 352
345 347 349 351 353 357 357 358 357 356 355 356 357 361 364 364 364 366 363 360 362 368 354 353 353 354 352 358 355 355 353 354 358 361 358 363 360 356 357 356 354 355 356
345 347 350 348 350 353 353 356 356 357 358 358 359 360 364 366 368 366 361 360 366 366 363 353 355 349 354 355 354 349 352 355 358 359 361 359 357 356 357 358 355 354 355
348 349 350 352 351 353 357 356 357 360 358 359 359 359 362 365 366 366 361 364 367 365 362 361 359 359 357 352 354 354 358 358 358 356 357 361 362 359 358 358 357 357 357
350 350 351 351 354 357 357 359 358 358 359 359 357 358 366 366 367 371 363 366 369 360 361 361 357 357 355 354 350 353 355 357 358 359 359 360 363 358 356 360 360 359 357
349 350 352 352 356 357 356 355 354 352 355 355 356 362 368 366 367 368 363 368 366 360 360 358 357 356 355 357 353 358 358 361 363 363 359 364 362 359 361 362 358 359 357
349 352 353 355 358 358 356 357 355 355 353 354 356 363 367 367 369 366 369 368 365 360 362 359 361 355 355 358 359 356 349 351 355 359 361 362 359 359 360 358 357 357 357
348 352 354 357 359 361 360 358 359 359 357 354 355 357 364 365 365 371 369 370 367 361 358 361 360 358 359 360 360 354 346 344 349 358 356 354 356 354 355 356 357 359 359
347 351 355 358 359 361 363 358 360 351 348 350 354 359 365 361 360 368 370 369 365 363 365 363 363 362 361 355 358 359 357 355 344 343 354 353 355 352 353 353 354 355 356
346 348 353 357 361 361 362 362 357 356 351 354 357 362 365 363 360 363 370 367 365 360 363 364 364 362 360 355 353 355 356 353 354 344 341 346 351 356 353 353 352 353 352
345 347 350 355 359 362 361 362 361 359 357 354 359 357 358 358 356 361 369 369 366 363 363 361 363 360 360 357 354 355 349 345 343 343 343 346 345 346 354 356 353 352 350
Wind_Speed
4 5 12 11 13 14 16 17 16 14 15 14 12 12 13 12 12 13 14 15 14 13 14 14 14 15 15 15 15 14 14 14 14 13 14 14 14 13 13 10 14 17 15
10 10 11 12 15 17 16 16 16 15 13 14 13 13 12 12 13 14 14 15 14 13 14 13 14 15 15 15 14 12 11 13 12 12 14 14 13 12 11 11 13 14 15
14 11 13 13 14 16 16 15 15 16 13 13 13 13 12 11 12 13 13 15 13 13 13 12 13 13 15 14 12 10 11 9 11 8 9 10 12 11 12 13 12 12 13
14 15 14 13 15 14 16 14 14 14 13 13 12 11 12 11 10 12 12 13 11 11 13 11 11 11 11 11 11 8 9 10 8 5 4 8 12 10 11 14 12 12 13
15 15 17 13 15 13 14 13 12 13 13 13 12 11 11 11 10 10 11 10 8 9 11 11 10 9 9 10 10 8 9 7 4 5 7 3 9 11 10 12 11 10 9
14 14 15 14 14 13 14 13 13 12 13 11 10 10 10 10 9 10 9 9 8 9 9 9 8 8 8 9 8 7 6 5 7 5 6 4 6 12 8 8 8 10 10
15 16 16 13 13 13 13 12 13 11 12 12 10 10 9 8 8 9 6 7 7 6 6 6 6 7 7 7 7 6 6 3 2 3 4 6 11 7 8 8 8 8 10
16 15 14 13 12 11 11 12 12 11 10 10 9 9 7 7 7 7 5 5 5 4 5 4 5 4 5 5 5 5 4 3 6 8 2 4 8 6 7 7 7 6 7
15 14 14 12 12 11 10 10 11 10 10 9 8 7 6 5 4 4 3 2 1 1 2 2 2 2 2 2 3 2 4 4 5 2 2 2 7 5 4 8 5 6 6
14 15 12 14 12 12 12 10 9 9 8 7 7 6 5 4 4 5 4 6 3 3 2 2 2 4 2 2 2 2 1 6 3 6 5 5 5 5 1 5 5 5 6
11 12 12 11 11 8 7 9 9 8 7 6 7 6 8 8 7 9 7 4 4 5 4 4 4 2 3 7 6 4 6 2 3 3 3 10 5 11 9 8 1 4 5
14 13 11 10 11 10 6 9 5 8 8 6 5 4 5 2 2 4 1 4 6 6 6 6 7 5 9 6 8 7 7 4 3 3 4 8 7 16 7 5 9 6 3
15 11 13 11 8 9 6 6 6 5 4 5 4 4 2 3 4 5 3 5 4 7 4 5 8 3 10 2 4 4 2 2 3 1 5 7 10 17 11 8 10 9 8
14 13 13 12 9 8 5 6 4 4 4 3 5 5 3 6 4 2 2 3 3 1 4 5 3 1 4 4 8 3 7 5 5 4 5 8 14 18 19 16 16 15 11
13 13 12 11 9 7 6 5 4 4 5 5 5 6 5 4 1 3 3 5 6 3 2 3 4 2 0 2 5 2 6 3 4 3 2 7 15 17 18 18 18 20 16
12 13 12 11 10 9 7 5 4 5 4 3 4 4 6 5 3 3 4 4 5 2 2 0 3 3 3 2 4 3 0 3 2 3 5 5 12 15 17 18 15 16 17
12 12 12 11 12 10 9 7 5 4 5 4 4 5 6 6 5 5 5 5 3 2 0 1 2 4 7 4 4 4 5 7 4 5 5 4 10 12 17 18 14 14 16
12 12 11 10 12 12 9 7 5 5 4 4 4 5 7 7 7 6 5 4 4 5 3 2 2 3 2 6 6 2 6 5 8 5 7 6 5 6 13 17 15 12 14
12 12 12 11 11 11 9 7 7 5 6 4 5 5 4 5 7 7 4 3 3 4 2 3 4 4 5 7 6 6 3 4 6 5 5 6 5 6 8 14 16 14 11
12 12 12 11 11 9 7 7 6 5 5 5 5 4 4 4 5 5 3 3 4 4 2 1 4 5 4 4 4 5 5 4 4 3 4 4 7 6 4 8 8 9 14
13 13 13 13 11 9 8 8 7 7 6 5 5 4 5 4 3 5 3 1 3 3 4 2 4 4 4 3 3 3 3 3 2 3 5 3 4 5 7 4 4 4 7
15 14 14 14 13 11 8 7 6 5 5 5 4 3 5 4 3 4 2 0 2 3 3 3 2 2 2 3 3 7 3 3 6 4 4 2 5 4 4 5 6 5 5
15 16 16 15 14 12 11 7 6 5 5 6 6 6 4 4 3 3 3 0 2 3 4 3 3 3 2 2 4 5 2 2 6 2 4 6 6 5 6 5 7 6 6
16 15 15 15 15 13 13 10 11 8 7 6 6 4 2 4 4 4 4 3 3 1 2 2 2 4 5 1 2 1 4 6 3 5 1 4 4 4 5 6 5 6 6
16 14 14 14 15 14 14 12 10 10 6 6 5 3 4 4 5 5 5 4 4 4 3 2 1 3 2 6 3 2 1 1 1 4 8 5 3 1 4 4 5 5 6
14 13 13 14 14 15 14 14 13 10 9 6 5 4 4 4 5 5 5 4 4 3 4 3 1 2 4 4 5 3 3 3 3 3 0 5 5 2 0 1 3 4 4
Wind_Direction
136 138 126 117 106 115 120 117 114 115 114 110 107 99 99 97 95 94 96 103 103 93 87 96 94 92 90 82 84 93 93 104 102 104 105 102 103 100 104 110 145 107 112
139 153 142 124 114 114 115 117 114 113 112 109 102 101 103 99 100 100 103 100 99 97 94 83 90 85 89 84 80 87 101 106 106 110 108 103 102 103 96 75 71 100 105
144 137 138 125 116 112 117 117 114 111 112 106 103 98 97 93 105 102 105 101 99 90 90 91 87 92 84 76 74 77 78 87 96 109 160 147 98 108 105 94 100 105 107
140 141 133 125 113 115 114 116 114 116 115 108 110 101 99 100 103 110 106 105 105 102 95 93 91 93 90 77 78 85 86 81 100 171 157 115 110 108 109 108 108 111 106
145 140 118 128 118 129 115 119 118 121 119 115 117 112 112 108 109 109 108 109 103 103 97 93 91 89 85 85 77 98 89 87 98 227 81 32 122 104 112 123 124 126 121
135 130 129 129 131 129 126 125 125 128 123 125 122 114 118 117 112 98 104 105 101 96 96 99 96 94 85 79 73 75 102 121 230 97 133 100 42 113 121 115 100 108 111
144 129 141 140 143 136 137 137 131 133 129 123 126 125 119 118 111 113 114 109 112 107 102 102 101 95 89 79 64 62 77 150 194 71 73 115 91 126 131 124 125 126 128
137 144 134 141 135 133 137 138 138 134 126 119 122 120 117 123 117 116 119 108 110 110 101 98 95 97 92 80 69 51 59 302 180 135 66 103 95 137 144 128 129 129 137
144 143 155 151 141 144 142 147 144 140 135 131 130 126 133 133 128 132 133 127 143 140 140 148 125 123 120 99 95 78 101 347 130 96 99 84 122 137 140 134 136 136 138
155 156 163 151 165 169 160 158 156 151 146 147 153 149 170 173 192 183 191 186 218 238 237 228 212 188 171 185 180 174 177 241 7 160 139 130 139 78 141 160 154 155 144
164 159 162 162 158 160 162 153 163 158 163 173 180 183 207 235 169 166 95 124 238 245 226 237 223 231 217 214 191 208 238 199 326 143 176 118 147 95 30 342 152 187 155
169 165 160 166 170 161 179 149 190 160 188 198 199 172 226 192 112 319 13 205 240 245 244 232 237 225 230 230 149 196 235 82 274 101 158 142 148 128 108 356 350 312 227
171 167 168 176 185 166 180 170 196 181 177 176 206 232 213 254 185 210 191 189 200 219 278 224 199 203 295 332 293 275 13 6 270 231 140 156 120 142 167 212 264 284 302
170 176 174 171 185 187 180 195 184 184 186 206 168 199 225 224 189 262 287 307 218 290 209 318 241 283 213 355 307 224 250 213 166 176 100 166 153 172 180 194 228 247 265
176 178 183 176 183 191 200 188 202 205 194 187 190 177 243 248 280 257 350 300 332 280 307 202 308 308 26 267 259 233 259 318 322 89 123 169 172 177 175 195 200 226 239
182 178 177 184 179 193 201 199 201 201 198 204 194 200 216 260 257 322 269 242 232 288 65 234 187 338 317 198 288 253 280 283 348 150 193 138 168 178 184 185 207 220 225
186 176 181 188 183 193 196 193 209 194 190 204 214 214 235 254 225 287 256 289 359 20 40 245 152 159 232 181 224 175 258 182 214 192 232 128 164 191 189 185 195 214 228
186 180 189 190 189 183 192 185 213 202 223 216 233 240 224 241 256 261 269 305 1 308 213 187 161 206 190 248 230 187 242 203 226 214 142 197 153 157 189 190 202 208 217
183 179 190 191 195 183 185 198 206 213 222 239 245 249 247 260 243 248 270 341 315 311 308 182 208 186 202 205 203 219 51 255 240 191 150 179 154 169 180 183 202 210 225
178 183 191 191 194 189 180 205 215 221 225 231 240 251 300 249 235 226 246 319 302 340 25 210 179 182 190 160 203 136 219 168 185 205 146 167 149 163 172 194 179 200 222
191 190 193 195 188 192 199 201 207 217 209 224 233 248 272 269 217 216 265 279 295 345 36 186 159 175 175 178 201 133 147 139 119 135 188 130 173 166 120 128 164 130 156
195 197 197 203 194 200 199 211 221 225 224 237 243 269 275 263 231 235 271 67 25 109 135 157 223 159 193 178 233 206 131 128 77 67 54 96 113 150 125 101 86 84 92
200 200 202 202 199 202 216 202 202 231 248 232 232 232 225 250 251 224 181 199 162 272 143 182 196 260 284 173 305 289 122 156 154 87 119 106 110 157 115 101 75 85 85
204 200 203 204 204 198 201 209 215 226 226 217 226 212 175 221 203 189 180 179 209 178 108 176 204 313 295 158 204 272 339 353 209 137 43 89 124 119 136 135 122 129 129
201 201 198 201 206 207 199 218 207 226 214 223 217 163 235 194 212 200 184 180 182 227 128 334 285 297 287 319 295 197 313 180 320 298 143 143 133 144 149 141 161 124 121
201 199 194 194 203 203 201 203 214 213 230 233 212 217 224 202 179 201 193 191 190 183 189 220 280 235 318 323 305 307 263 281 178 223 123 160 151 120 68 143 146 132 170